Weather in Zykovo

Russia / Kirov Oblast     57°36′03″N   49°38′25″E
temp.,
°C
wind,
m/s
gust,
m/s
humid.,
%
clouds,
%
prec.,
mm/h
press.,
hPa
HPBL,
m
19 april, mon
mon1900:000ene6137384 0.0 1031491
03:00−1ene5137421 0.0 1032448
06:00−1ene512732 0.0 1033526
09:00+2e710460 0.0 10331160
12:00+5e68370 0.0 10331522
15:00+6e67350 0.0 10321649
18:00+3e38520 0.0 1032185
21:000ene39670 0.0 1034171
20 april, tue
tue2000:00−1e310640 0.0 1034201
03:00−2e39630 0.0 1035196
06:000e49550 0.0 1035307
09:00+5ese56340 0.0 1034986
12:00+8se45310 0.0 10331397
15:00+9ese45330 0.0 10321371
18:00+6ese37510 0.0 1030137
21:00+2ese411611 0.0 1030213
21 april, wed
wed2100:000ese3106623 0.0 1030194
03:00+1ese4136074 0.0 1029283
06:00+2ese61554100 0.0 1027547
09:00+6se81543100 0.0 1025999
12:00+8se81540100 0.0 10231178
15:00+7sse91644100 0.1 10221262
18:00+2sse81795100 0.9 1022930
21:00+2sse71697100 3.9 1022825
22 april, thu
thu2200:00+2sse71397100 0.2 1022721
03:00+2sse51197100 0.3 1022598
06:00+2s51197100 0.0 1023511
09:00+3sse41097100 0.0 1024498
12:00+6sse5990100 0.0 1024640
15:00+7sse5990100 0.1 1024677
18:00+5s51095100 0.1 1025501
21:00+4s5994100 0.1 1025440
23 april, fri
fri2300:00+5s389495 0.0 1025327
03:00+4sse4795100 0.0 1026382
06:00+4sse3797100 0.0 1026365
09:00+6sse4690100 0.0 1026423
12:00+11sse356959 0.0 1025779
15:00+12sse5565100 0.0 1024938
18:00+9se477495 0.0 1024380
21:00+6se379298 0.0 1023233